Regional Weather Roundup
Issued by NWS

Home | Current Version | Previous Version | Text Only | Print | Product List | Glossary Off
Versions: 1 2 3 4 5 6 7 8 9 10 11 12 13 14 15 16 17 18 19 20 21 22 23 24 25 26 27 28 29 30 31 32 33 34 35 36 37 38 39 40 41 42 43 44 45 46 47 48 49 50

000
ASUS45 KBOU 171207
RWRCO

WEATHER ROUNDUP FOR COLORADO
NATIONAL WEATHER SERVICE DENVER/BOULDER CO
600 AM MDT THU AUG 17 2017

NOTE: "FAIR" INDICATES FEW OR NO CLOUDS BELOW 12000 FEET WITH NO
SIGNIFICANT WEATHER AND/OR OBSTRUCTIONS TO VISIBILITY.

COZ001>005-013-030-031-171300-
...NORTHWEST COLORADO...

CITY           SKY/WX    TMP DP  RH WIND       PRES   REMARKS
CRAIG          FAIR      47  41  80 CALM      30.25R
HAYDEN         FAIR      51  39  63 E9        30.28S
MEEKER         FAIR      47  40  76 N6        30.26R
RABBIT EARS PA PTSUNNY   46  30  53 SW5       30.48S
STEAMBOAT SPGS MOCLDY    45  40  83 CALM      30.29R
WALDEN         FAIR      37  34  87 N3        30.36S
$$

COZ006>008-011-171300-
...WEST CENTRAL VALLEYS...

CITY           SKY/WX    TMP DP  RH WIND       PRES   REMARKS
GRAND JUNCTION FAIR      62  39  42 E10       30.14R
MONTROSE       FAIR      54  38  54 S6        30.24R
EAGLE          FAIR      50  36  58 CALM      30.32R
RIFLE          FAIR      53  39  59 E6        30.23R
DELTA          FAIR      58  38  48 NE9       30.20R
NUCLA          FAIR      54  30  40 E9        30.27R
$$

COZ017>023-064>068-171300-
...SOUTHWEST COLORADO...

CITY           SKY/WX    TMP DP  RH WIND       PRES   REMARKS
DURANGO        FAIR      47  30  51 N7        30.28R
CORTEZ         FAIR      43  33  68 CALM      30.23R
PAGOSA SPRINGS FAIR      42  31  62 CALM      30.35R
TELLURIDE      FAIR      46  29  51 SE7       30.46R
WOLF CREEK PAS FAIR      43  23  45 SW6       30.66R
$$

COZ009-010-012-014-032>034-037-058>063-171300-
...CENTRAL COLORADO...

CITY           SKY/WX    TMP DP  RH WIND       PRES   REMARKS
ASPEN          FAIR      44  35  70 S6        30.35R
BUENA VISTA    FAIR      45  35  69 NW7       30.39R
COPPER MTN     FAIR      45  27  49 W12       30.59S
BERTHOUD PASS  FAIR      36  32  87 NW24G32   30.59S
COTTONWOOD PAS FAIR      50  32  50 CALM      30.48R
GUNNISON       FAIR      38  34  85 CALM      30.40R
KREMMLING      FAIR      45  39  81 CALM      30.37R
LEADVILLE      FAIR      32  30  92 CALM      30.47R
MONARCH PASS   FAIR      41  27  56 W15       30.69S
SALIDA         FAIR      51  42  70 NW6       30.44R
SUNLIGHT       FAIR      46  28  49 NW5       30.55R
WILKERSON PASS FAIR      41  37  87 W5        30.58R
$$

COZ069>075-171300-
...SAN LUIS VALLEY/SANGRE DE CRISTO MOUNTAINS...

CITY           SKY/WX    TMP DP  RH WIND       PRES   REMARKS
ALAMOSA        FAIR      40  35  83 S5        30.34R
DEL NORTE      FAIR      48  33  55 W10       30.37R
LA VETA PASS   NOT AVBL
SAGUACHE       FAIR      45  32  61 N7        30.37R
$$

COZ035-036-038>040-171300-
...NORTHERN COLORADO FRONT RANGE...

CITY           SKY/WX    TMP DP  RH WIND       PRES   REMARKS
DENVER INTL AP FAIR      61  47  59 SW17      30.15R
DMNS CITY PARK   N/A     59  48  66 SE7G13    30.15S
AURORA         PTCLDY    60  47  63 S15       30.17R
FRONT RANGE AP FAIR      63  48  59 S13       30.16S
ERIE MUNI ARPT FAIR      50  46  87 N3        30.19S
BOULDER MUN AP FAIR      54  46  76 NE5       30.14S
CENTENNIAL     FAIR      57  48  72 S8        30.19S
BROOMFIELD     MOCLDY    57  45  62 CALM      30.17
FORT COLLINS   FAIR      53  49  86 CALM      30.14S
LONGMONT       FAIR      52  47  81 CALM      30.15S
$$

COZ041-046-047-076>085-087-088-171300-
...PIKES PEAK/PALMER DIVIDE AND SOUTHERN FOOTHILLS...

CITY           SKY/WX    TMP DP  RH WIND       PRES   REMARKS
COLO. SPRINGS  MOCLDY    59  48  67 SE5       30.26R
A. F. ACADEMY  FAIR      48  47  96 N8        30.26S
SCHRIEVER AFB  MOCLDY    56  47  71 SW6       30.26R
CHEYENNE MTN   MOCLDY    57  47  67 N3        30.23R
ELLICOTT       FAIR     N/A N/A N/A SW7       30.24S
FALCON         FAIR      54  45  71 SW7       30.29F
FORT CARSON    MOCLDY    61  46  59 SW5       30.23R
LIMON          FAIR      57  49  74 S6        30.20R
MONUMENT HILL  FAIR      50  43  76 S8        30.29S
CANON CITY     CLEAR     57  52  82 W8        30.21S
WALSENBURG     FAIR      54  48  82 W6        30.25R
TRINIDAD       FAIR      55  49  80 NW6       30.22S
$$

COZ042>045-048>051-090-091-171300-
...NORTHEAST COLORADO...

CITY           SKY/WX    TMP DP  RH WIND       PRES   REMARKS
GREELEY ARPT   FAIR      50  48  93 NW5       30.13S
AKRON          FAIR      57  48  72 S12       30.14R
BURLINGTON     MOCLDY    56  54  93 S8        30.16R
WRAY           NOT AVBL
YUMA           FAIR      52  50  93 S8        30.13R
STERLING       FAIR      50  50 100 W7        30.09S
HOLYOKE        FAIR      55  52  88 W7        30.10R
FORT MORGAN    FAIR      50  47  88 CALM      30.13S
$$

COZ086-089-092>099-171300-
...SOUTHEAST COLORADO...

CITY           SKY/WX    TMP DP  RH WIND       PRES   REMARKS
PUEBLO         FAIR      61  54  77 CALM      30.17R
LA JUNTA       FAIR      62  56  80 SE3       30.16R
LAMAR          FAIR      62  57  83 N3        30.13R
SPRINGFIELD      N/A     56  56 100 CALM      30.18R
$$



USA.gov is the U.S. government's official web portal to all federal, state and local government web resources and services.